Location: Grand Moustoir
(47.8355°N, 3.3120°W)
Time: 19:26:55
(UTC+00:00)

Cosmos 1825 Rocket - Pass Details

Date: 20 January 2020
Orbit: 604 x 630 km, 82.5° (Epoch: 28 February)

Event Time Altitude Azimuth Distance (km) Brightness Sun altitude
Exits shadow 06:34:46 10° 332° (NNW) 1,982 5.7 -13.1°
Reaches altitude 10° 06:34:49 10° 332° (NNW) 1,964 5.7 -13.1°
Maximum altitude 06:38:39 31° 270° (W) 1,067 4.2 -12.5°
Drops below altitude 10° 06:42:28 10° 208° (SSW) 1,955 6.0 -11.9°
Sets 06:44:51 0° 198° (SSW) 2,857 7.0 -11.5°
